Flag for Japan Weather past 2 weeks in Nagoya, Japan

Now
70 °F

Passing clouds.


Feels Like: 70 °F
Forecast: 57 / 74 °F
Wind: 22 mph from Northwest

Location: Nagoya Airport

Current Time: Sep 18, 2014 at 11:21:36 PM

Latest Report: Sep 18, 2014 at 11:00 PM


Visibility: N/A

Pressure: 29.95 "Hg

Humidity: 64%

Dew point: 57 °F

Location of NagoyaLocation

Historic Weather in Nagoya — Graph

°F

Nagoya temperature yesterday

Maximum temperature yesterday: 81 °F (at 3:30 PM)
Minimum temperature yesterday: 64 °F (at 4:00 AM)
Average temperature yesterday: 74 °F

Past Weeks' High & Low Weather Summary

 TemperatureHumidityPressure
High86 °F (Sep 6, 1:30 PM)100% (Sep 5, 4:00 AM)29.95 "Hg (Sep 5, 4:00 AM)
Low64 °F (Sep 14, 5:30 AM)45% (Sep 12, 11:30 AM)29.62 "Hg (Sep 8, 3:00 PM)
Average75 °F76%29.82 "Hg
* Reported Sep 3 10:00 PM — Sep 18 10:00 PM, Nagoya, Weather by CustomWeather, © 2014

Note: Actual official high and low records may vary slightly from our data, if they occured in-between our weather recording intervals... More about our weather records

Advertising

Nagoya weather history for previous 24 hours

 ConditionsComfort  
Time TempWeatherWind HumidityBarometerVisibility
10:00 PM
Sep 18
70 °FPassing clouds.18 mph57%29.92 "HgN/A
9:30 PM72 °FPassing clouds.20 mph57%29.92 "HgN/A
9:00 PM72 °FPassing clouds.23 mph53%29.92 "HgN/A
8:30 PM72 °FPassing clouds.21 mph50%29.92 "HgN/A
8:00 PM72 °FPassing clouds.24 mph53%29.92 "HgN/A
7:30 PM72 °FPassing clouds.24 mph57%29.92 "HgN/A
7:00 PM73 °FPassing clouds.24 mph53%29.89 "HgN/A
6:30 PM73 °FPassing clouds.24 mph53%29.89 "HgN/A
6:00 PM73 °FPassing clouds.26 mph57%29.86 "HgN/A
5:30 PM75 °FPartly sunny.23 mph50%29.86 "HgN/A
5:00 PM75 °FPartly sunny.22 mph54%29.86 "HgN/A
4:30 PM75 °FPartly sunny.22 mph57%29.86 "HgN/A
4:00 PM75 °FPartly sunny.23 mph61%29.83 "HgN/A
3:30 PM75 °FPartly sunny.22 mph61%29.83 "HgN/A
3:00 PM77 °FPartly sunny.17 mph51%29.83 "HgN/A
2:30 PM79 °FPartly sunny.20 mph45%29.83 "HgN/A
2:00 PM79 °FPartly sunny.21 mph48%29.83 "HgN/A
1:30 PM77 °FPartly sunny.20 mph54%29.83 "HgN/A
1:00 PM79 °FPartly sunny.21 mph48%29.83 "HgN/A
12:30 PM79 °FPartly sunny.22 mph51%29.86 "HgN/A
12:00 PM77 °FPartly sunny.22 mph51%29.86 "HgN/A
11:30 AM79 °FPartly sunny.18 mph48%29.86 "HgN/A
11:00 AM77 °FPartly sunny.18 mph51%29.89 "HgN/A
10:30 AM77 °FPartly sunny.21 mph47%29.89 "HgN/A
10:00 AM77 °FPartly sunny.21 mph47%29.89 "HgN/A
9:30 AM75 °FPartly sunny.20 mph57%29.89 "HgN/A
9:00 AM75 °FPartly sunny.7 mph50%29.89 "HgN/A
8:30 AM73 °FSunny.16 mph53%29.89 "Hg10 mi
8:00 AM73 °FSunny.16 mph57%29.86 "Hg10 mi
7:30 AM73 °FSunny.13 mph61%29.86 "Hg10 mi
7:00 AM72 °FSunny.15 mph65%29.86 "Hg10 mi
6:30 AM72 °FScattered clouds.16 mph65%29.86 "HgN/A
6:00 AM70 °FScattered clouds.18 mph73%29.86 "HgN/A
5:30 AM70 °FPartly cloudy.22 mph73%29.86 "HgN/A
5:00 AM72 °FPassing clouds.21 mph73%29.83 "HgN/A
4:30 AM72 °FPassing clouds.21 mph73%29.83 "HgN/A
4:00 AM72 °FPassing clouds.17 mph73%29.83 "HgN/A
3:30 AM72 °FPassing clouds.21 mph78%29.83 "HgN/A
3:00 AM72 °FPassing clouds.20 mph73%29.83 "HgN/A
2:30 AM72 °FPassing clouds.20 mph73%29.83 "HgN/A
2:00 AM72 °FPassing clouds.18 mph73%29.83 "HgN/A
1:30 AM72 °FPassing clouds.17 mph73%29.83 "HgN/A
1:00 AM72 °FPassing clouds.17 mph73%29.83 "HgN/A
12:30 AM72 °FPassing clouds.17 mph69%29.83 "HgN/A
12:00 AM73 °FPassing clouds.14 mph65%29.86 "HgN/A
11:30 PM
Sep 17
73 °FPassing clouds.16 mph65%29.86 "HgN/A
11:00 PM73 °FPassing clouds.16 mph69%29.86 "HgN/A
Weather by CustomWeather, © 2014

See weather overviewHow to use our weather pages